Regional Weather Roundup
Issued by NWS Binghamton, NY

Home | Current Version | Previous Version | Text Only | Print | Product List | Glossary On
Versions: 1 2 3 4 5 6 7 8 9 10 11 12 13 14 15 16 17 18 19 20 21 22 23 24 25 26 27 28 29 30 31 32 33 34 35 36 37 38 39 40 41 42 43 44 45 46 47 48 49 50
000
ASUS41 KBGM 300610
RWRBGM

REGIONAL WEATHER ROUNDUP
NATIONAL WEATHER SERVICE BINGHAMTON NY
200 AM EDT TUE MAY 30 2017

Note: "fair" indicates few or no clouds below 12,000 feet with no
significant weather and/or obstructions to visibility.

* = Station(s) that does not report precipitation, such as rain,
snow, etc, also no thunder or fog.

NYZ009-015>018-022>025-036-037-044>046-055>057-062-300700
...Central New York...

CITY           SKY/WX    TMP DP  RH WIND       PRES   REMARKS
Binghamton     CLOUDY    55  55 100 S8        30.01S
Cortland       CLOUDY    59  59 100 SE3       30.00S
Dansville      PTCLDY    59  50  72 S7        29.94F
Elmira         PTCLDY    53  50  89 CALM      29.97S
Seneca Falls   CLEAR     63  61  94 S13       29.95F
Ithaca         CLOUDY    60  58  92 S9        29.99S
Hamilton       CLOUDY    55  54  94 S8        30.01S
Hornell        CLEAR     54  50  87 S5        29.99S
Monticello     CLOUDY    52  52 100 SE7       30.11R
Norwich        CLOUDY    55  54  94 S7        30.03S
Oneonta        CLOUDY    54 N/A N/A CALM      30.04S
Penn Yan       CLOUDY    57  48  72 CALM      29.96S
Rome           CLOUDY    57  55  93 E8        30.00S
Sidney         CLOUDY    55  55 100 CALM      30.04R
Syracuse       MOCLDY    58  57  97 VRB6      29.94S
$$

PAZ038>040-043-044-047-048-072-300700
...Northeast Pennsylvania...

CITY           SKY/WX    TMP DP  RH WIND       PRES   REMARKS
Hazleton       FOG       54  54 100 SE7       30.10S VSB 1/2
Scranton       CLOUDY    58  55  90 VRB3      30.05F
$$
&&
KEY
WCI = Wind Chill Index
VSB = Visibility
HX  = Heat Index
$$



USA.gov is the U.S. government's official web portal to all federal, state and local government web resources and services.